Retour au catalogue

IRIDIUM 33 DEB

ActifPO
NORAD 46734·DEBRIS·🇺🇸 United States

Lancé Sep 14, 1997 depuis Baikonur Cosmodrome

Loading…

Prochains Passages (prochaines 24 heures)

TLE

VieillissantSource: Space-Track

Époque: Sep 6, 2026, 06:35 UTC

1 46734U 97051ABR 26249.27443493  .00001384  00000-0  40057-3 0  9990
2 46734  86.2584 245.2183 0039366 164.2144 252.2692 14.43393979668687

Suivez IRIDIUM 33 DEB en temps réel avec AllMySat

Download on the App Store